Simultaneous Nadir Overpasses (SNOs) Predictions

Prediction of SNOs between GOES-16 and TERRA Satellite Orbit:

Table of predicted SNOs for the next 14.0 days since TLE Epoch: 1/1/2017
Index Date Time (GOES-16) GOES-16 Lat,Lon TERRA Lat,Lon Distance(km) Time Diff (sec)
1 01/02/2017 16:16:17 0.02, -89.45 -0.64, -86.24 363.78 80
2 01/03/2017 04:35:01 -0.02, -89.43 -0.45, -91.44 227.85 80
3 01/05/2017 04:25:29 -0.02, -89.44 0.20, -88.48 109.30 80
4 01/05/2017 16:44:04 0.02, -89.45 0.93, -93.63 475.39 80
5 01/07/2017 04:13:16 -0.02, -89.44 0.78, -85.51 446.51 80
6 01/07/2017 16:31:52 0.02, -89.46 0.28, -90.68 138.19 80
7 01/09/2017 16:22:20 0.02, -89.47 -0.38, -87.72 199.13 80
8 01/10/2017 04:41:02 -0.02, -89.45 -0.77, -92.90 392.50 80
9 01/12/2017 04:28:51 -0.02, -89.46 -0.11, -89.95 54.73 80
10 01/14/2017 04:19:18 -0.03, -89.48 0.50, -86.98 283.77 80
11 01/14/2017 16:37:52 0.03, -89.50 0.61, -92.14 300.49 80




NCC Satellite Simultaneous Nadir Overpasses (SNOs) Prediction Service
